• In Russia
  • List of Countries
  • For 7 days
  • Water Temperature
  • Satellite Maps
  • Weather Map
  • Weather Widgets
  • user-avatar
    Login

    Hourly Weather Eisenstadt

    Today, 17 August, Friday

    Time Temperature Precipitation Wind Pressure Humidity
    00:00 +19°C° 0 mm 1 mps 723 mmHg 64%
    01:00 +19°C° 0 mm 1 mps 723 mmHg 64%
    02:00 +18°C° 0 mm 1 mps 723 mmHg 65%
    03:00 +18°C° 0 mm 1 mps 723 mmHg 66%
    04:00 +16°C° 0 mm 1 mps 723 mmHg 67%
    05:00 +19°C° 0 mm 1 mps 723 mmHg 64%
    06:00 +20°C° 0 mm 1 mps 723 mmHg 62%
    07:00 +21°C° 0 mm 1 mps 723 mmHg 57%
    08:00 +23°C° 0 mm 1 mps 723 mmHg 51%
    09:00 +25°C° 0 mm 1 mps 723 mmHg 45%
    10:00 +27°C° 0 mm 2 mps 723 mmHg 39%
    11:00 +28°C° 0 mm 2 mps 723 mmHg 38%
    12:00 +29°C° 0 mm 2 mps 723 mmHg 36%
    13:00 +29°C° 0 mm 2 mps 723 mmHg 36%
    14:00 +29°C° 0 mm 2 mps 723 mmHg 37%
    15:00 +29°C° 0 mm 2 mps 723 mmHg 37%
    16:00 +29°C° 0 mm 1 mps 723 mmHg 38%
    17:00 +27°C° 0 mm 1 mps 723 mmHg 44%
    18:00 +25°C° 0 mm 1 mps 722 mmHg 51%
    19:00 +23°C° 0 mm 1 mps 722 mmHg 58%
    20:00 +23°C° 0 mm 1 mps 723 mmHg 60%
    21:00 +22°C° 0 mm 1 mps 723 mmHg 63%
    22:00 +21°C° 0 mm 1 mps 723 mmHg 65%
    23:00 +20°C° 0 mm 1 mps 723 mmHg 66%

    Tomorrow, 18 August, Saturday

    Time Temperature Precipitation Wind Pressure Humidity
    00:00 +20°C° 0 mm 1 mps 723 mmHg 68%
    01:00 +20°C° 0 mm 1 mps 724 mmHg 69%
    02:00 +19°C° 0 mm 1 mps 724 mmHg 69%
    03:00 +19°C° 0 mm 1 mps 724 mmHg 70%
    04:00 +19°C° 0 mm 1 mps 724 mmHg 71%
    05:00 +20°C° 0 mm 1 mps 724 mmHg 68%
    06:00 +21°C° 0 mm 1 mps 725 mmHg 65%
    07:00 +22°C° 0 mm 1 mps 725 mmHg 62%
    08:00 +24°C° 0 mm 1 mps 725 mmHg 55%
    09:00 +26°C° 0 mm 1 mps 725 mmHg 49%
    10:00 +28°C° 0 mm 2 mps 726 mmHg 43%
    11:00 +29°C° 0.1 mm 1 mps 726 mmHg 41%
    12:00 +30°C° 0.1 mm 1 mps 725 mmHg 39%
    13:00 +31°C° 0.1 mm 1 mps 725 mmHg 37%
    14:00 +31°C° 0.1 mm 1 mps 725 mmHg 37%
    15:00 +31°C° 0.1 mm 1 mps 725 mmHg 37%
    16:00 +31°C° 0.1 mm 1 mps 725 mmHg 36%
    17:00 +29°C° 0.1 mm 1 mps 725 mmHg 41%
    18:00 +27°C° 0.1 mm 1 mps 725 mmHg 45%
    19:00 +25°C° 0.1 mm 1 mps 725 mmHg 49%
    20:00 +24°C° 0 mm 1 mps 725 mmHg 51%
    21:00 +23°C° 0 mm 1 mps 725 mmHg 52%
    22:00 +23°C° 0 mm 1 mps 726 mmHg 54%
    23:00 +22°C° 0 mm 1 mps 726 mmHg 55%

    Day after tomorrow, 19 August, Sunday

    Time Temperature Precipitation Wind Pressure Humidity
    00:00 +22°C° 0 mm 1 mps 726 mmHg 56%
    01:00 +22°C° 0 mm 1 mps 726 mmHg 56%
    02:00 +21°C° 0 mm 1 mps 726 mmHg 58%
    03:00 +21°C° 0 mm 1 mps 726 mmHg 59%
    04:00 +21°C° 0 mm 1 mps 726 mmHg 60%
    05:00 +20°C° 0 mm 2 mps 726 mmHg 60%
    06:00 +21°C° 0 mm 2 mps 726 mmHg 60%
    07:00 +23°C° 0 mm 2 mps 726 mmHg 59%
    08:00 +25°C° 0 mm 2 mps 727 mmHg 54%
    09:00 +27°C° 0 mm 2 mps 727 mmHg 48%
    10:00 +29°C° 0 mm 2 mps 727 mmHg 43%
    11:00 +30°C° 0 mm 2 mps 727 mmHg 41%
    12:00 +30°C° 0 mm 2 mps 726 mmHg 39%
    13:00 +31°C° 0 mm 2 mps 726 mmHg 36%
    14:00 +31°C° 0 mm 2 mps 725 mmHg 36%
    15:00 +31°C° 0 mm 2 mps 725 mmHg 36%
    16:00 +31°C° 0 mm 2 mps 725 mmHg 36%
    17:00 +29°C° 0 mm 2 mps 725 mmHg 41%
    18:00 +27°C° 0 mm 1 mps 725 mmHg 46%
    19:00 +26°C° 0 mm 1 mps 724 mmHg 50%
    20:00 +25°C° 0 mm 1 mps 725 mmHg 52%
    21:00 +24°C° 0 mm 1 mps 725 mmHg 54%
    22:00 +23°C° 0 mm 1 mps 725 mmHg 55%
    23:00 +23°C° 0 mm 1 mps 725 mmHg 58%

    20 August, Monday

    Time Temperature Precipitation Wind Pressure Humidity
    00:00 +22°C° 0 mm 1 mps 725 mmHg 60%
    01:00 +22°C° 0 mm 1 mps 724 mmHg 63%
    02:00 +21°C° 0 mm 1 mps 724 mmHg 65%
    03:00 +21°C° 0 mm 1 mps 724 mmHg 66%
    04:00 +19°C° 0 mm 2 mps 724 mmHg 68%
    05:00 +20°C° 0 mm 2 mps 724 mmHg 67%
    06:00 +21°C° 0 mm 2 mps 725 mmHg 65%
    07:00 +23°C° 0 mm 1 mps 725 mmHg 64%
    08:00 +25°C° 0.2 mm 1 mps 725 mmHg 59%
    09:00 +27°C° 0.2 mm 1 mps 725 mmHg 54%
    10:00 +29°C° 0.2 mm 1 mps 725 mmHg 49%
    11:00 +30°C° 0.2 mm 1 mps 725 mmHg 46%
    12:00 +31°C° 0.2 mm 1 mps 725 mmHg 42%
    13:00 +32°C° 0.2 mm 1 mps 724 mmHg 39%
    14:00 +32°C° 0.2 mm 1 mps 724 mmHg 39%
    15:00 +32°C° 0.2 mm 1 mps 724 mmHg 38%
    16:00 +31°C° 0.2 mm 1 mps 724 mmHg 38%
    17:00 +29°C° 0.2 mm 1 mps 723 mmHg 44%
    18:00 +27°C° 0.2 mm 1 mps 723 mmHg 49%
    19:00 +26°C° 0.2 mm 1 mps 723 mmHg 54%
    20:00 +25°C° 0 mm 1 mps 723 mmHg 57%
    21:00 +24°C° 0 mm 2 mps 724 mmHg 60%
    22:00 +23°C° 0 mm 2 mps 724 mmHg 62%
    23:00 +23°C° 0 mm 2 mps 724 mmHg 64%

    21 August, Tuesday

    Time Temperature Precipitation Wind Pressure Humidity
    00:00 +21°C° 0 mm 2 mps 724 mmHg 67%
    01:00 +21°C° 0 mm 2 mps 724 mmHg 69%
    02:00 +21°C° 0 mm 2 mps 724 mmHg 70%
    03:00 +20°C° 0 mm 2 mps 724 mmHg 72%
    04:00 +20°C° 0 mm 2 mps 724 mmHg 73%
    05:00 +21°C° 0 mm 2 mps 724 mmHg 71%
    06:00 +22°C° 0 mm 3 mps 724 mmHg 69%
    07:00 +24°C° 0 mm 3 mps 725 mmHg 66%
    08:00 +26°C° 0 mm 3 mps 725 mmHg 58%
    09:00 +28°C° 0 mm 3 mps 725 mmHg 50%
    10:00 +30°C° 0 mm 3 mps 725 mmHg 43%
    11:00 +30°C° 0 mm 3 mps 725 mmHg 41%
    12:00 +31°C° 0 mm 3 mps 725 mmHg 39%
    13:00 +31°C° 0 mm 2 mps 725 mmHg 37%
    14:00 +31°C° 0 mm 2 mps 724 mmHg 38%
    15:00 +31°C° 0 mm 2 mps 724 mmHg 39%
    16:00 +31°C° 0 mm 2 mps 724 mmHg 40%
    17:00 +29°C° 0.1 mm 2 mps 724 mmHg 45%
    18:00 +27°C° 0.1 mm 2 mps 724 mmHg 49%
    19:00 +26°C° 0.1 mm 2 mps 724 mmHg 54%
    20:00 +25°C° 0 mm 2 mps 724 mmHg 57%
    21:00 +24°C° 0 mm 2 mps 724 mmHg 59%
    22:00 +23°C° 0 mm 2 mps 724 mmHg 62%
    23:00 +21°C° 0 mm 2 mps 724 mmHg 64%

    22 August, Wednesday

    Time Temperature Precipitation Wind Pressure Humidity
    00:00 +21°C° 0 mm 2 mps 724 mmHg 66%
    01:00 +21°C° 0 mm 2 mps 724 mmHg 68%
    02:00 +20°C° 0 mm 2 mps 724 mmHg 69%
    03:00 +20°C° 0 mm 2 mps 724 mmHg 71%
    04:00 +19°C° 0 mm 2 mps 724 mmHg 73%
    05:00 +21°C° 0 mm 2 mps 724 mmHg 70%
    06:00 +23°C° 0 mm 2 mps 725 mmHg 68%
    07:00 +24°C° 0 mm 2 mps 725 mmHg 66%
    08:00 +25°C° 0.2 mm 2 mps 725 mmHg 60%
    09:00 +27°C° 0.2 mm 2 mps 725 mmHg 55%
    10:00 +29°C° 0.2 mm 2 mps 725 mmHg 50%
    11:00 +30°C° 0.3 mm 1 mps 725 mmHg 47%
    12:00 +31°C° 0.3 mm 1 mps 725 mmHg 44%
    13:00 +30°C° 0.3 mm 0 mps 724 mmHg 41%
    14:00 +32°C° 0.3 mm 1 mps 724 mmHg 42%
    15:00 +31°C° 0.3 mm 1 mps 724 mmHg 42%
    16:00 +31°C° 0.3 mm 1 mps 724 mmHg 42%
    17:00 +29°C° 0.3 mm 1 mps 724 mmHg 47%
    18:00 +27°C° 0.3 mm 1 mps 723 mmHg 52%
    19:00 +26°C° 0.3 mm 1 mps 723 mmHg 58%
    20:00 +25°C° 0.9 mm 1 mps 723 mmHg 62%
    21:00 +24°C° 0.9 mm 1 mps 724 mmHg 66%
    22:00 +23°C° 0.9 mm 2 mps 724 mmHg 71%
    23:00 +23°C° 0.5 mm 2 mps 724 mmHg 73%
    Show more